DW7103 Weather Reports


time (UTC)temp
C
wind
direction
speed
KPH
gust
KPH
rain 1hr
cm
rain 24hr
cm
rain mn
cm
humidity
%
barometer
mb
20260505124607 12 187 1.6 0.0 0.00 0.00 0.00 19 1013.2
20260505123055 12 202 1.6 0.0 0.00 0.00 0.00 20 1013.1
20260505121552 12 212 0.0 0.0 0.00 0.00 0.00 19 1013.1
20260505120100 12 214 0.0 0.0 0.00 0.00 0.00 20 1013.0
20260505114541 12 182 1.6 0.0 0.00 0.00 0.00 20 1013.0
20260505113041 12 202 1.6 0.0 0.00 0.00 0.00 21 1013.0
20260505111538 12 204 0.0 0.0 0.00 0.00 0.00 19 1012.9
20260505101515 12 204 4.8 0.0 0.00 0.00 0.00 17 1012.4
20260505100017 12 186 4.8 0.0 0.00 0.00 0.00 16 1012.4
20260505094507 12 213 3.2 0.0 0.00 0.00 0.00 15 1012.3
20260505093003 12 199 1.6 0.0 0.00 0.00 0.00 14 1012.2
20260505091558 12 211 3.2 0.0 0.00 0.00 0.00 13 1012.2
20260505090054 12 201 1.6 0.0 0.00 0.00 0.00 10 1012.0
20260505084550 12 202 3.2 0.0 0.00 0.00 0.00 9 1012.0
20260505083046 12 204 1.6 0.0 0.00 0.00 0.00 5 1012.0
20260505081545 12 204 3.2 0.0 0.00 0.00 0.00 2 1012.1
20260505080038 11 185 3.2 0.0 0.00 0.00 0.00 100 1011.9
20260505074532 11 196 0.0 0.0 0.00 0.00 0.00 1 1011.9
20260505073041 11 197 0.0 0.0 0.00 0.00 0.00 4 1011.9
20260505071543 11 197 1.6 0.0 0.00 0.00 0.00 6 1011.7
20260505070019 11 200 1.6 0.0 0.00 0.00 0.00 8 1011.5
20260505064521 11 200 0.0 0.0 0.00 0.00 0.00 10 1011.2
20260505063014 12 200 3.2 0.0 0.00 0.00 0.00 14 1011.0
20260505061509 12 186 0.0 0.0 0.00 0.00 0.00 19 1010.8
20260505060002 12 200 3.2 0.0 0.00 0.00 0.00 22 1010.5
20260505054559 12 205 1.6 0.0 0.00 0.00 0.00 28 1010.5
20260505053102 12 228 0.0 0.0 0.00 0.00 0.00 36 1010.5
20260505051549 13 190 0.0 0.0 0.00 0.00 0.00 44 1010.4
20260505041531 15 164 0.0 0.0 0.00 0.00 0.00 64 1010.0
20260505040036 16 157 0.0 0.0 0.00 0.00 0.00 65 1009.7
20260505034523 16 157 0.0 0.0 0.00 0.00 0.00 65 1009.4
20260505033020 17 234 0.0 0.0 0.00 0.00 0.00 64 1009.3
20260505031514 17 192 0.0 0.0 0.00 0.00 0.00 62 1009.1
20260505030022 18 173 0.0 0.0 0.00 0.00 0.00 61 1009.0
20260505024505 18 193 0.0 0.0 0.00 0.00 0.00 60 1008.8
20260505023002 19 191 1.6 0.0 0.00 0.00 0.00 58 1008.6
20260505021600 20 195 1.6 0.0 0.00 0.00 0.00 58 1008.5
20260505020056 20 167 1.6 0.0 0.00 0.00 0.00 57 1008.5
20260505014548 21 186 4.8 0.0 0.00 0.00 0.00 55 1008.5
20260505013044 22 254 1.6 0.0 0.00 0.00 0.00 53 1008.4
20260505011549 22 200 3.2 0.0 0.00 0.00 0.00 51 1008.4
20260505010038 23 182 6.4 0.0 0.00 0.00 0.00 49 1008.4
20260505004534 23 200 3.2 0.0 0.00 0.00 0.00 48 1008.2
20260505003026 24 202 6.4 0.0 0.00 0.00 0.00 45 1008.2
20260505001521 25 183 1.6 0.0 0.00 0.00 0.00 42 1008.1
20260505000019 25 355 0.0 0.0 0.00 0.00 0.00 43 1008.1
20260504234514 25 347 1.6 0.0 0.00 0.00 0.00 42 1008.2
20260504233011 25 178 4.8 0.0 0.00 0.00 0.00 42 1008.2
20260504231504 25 183 4.8 0.0 0.00 0.00 0.00 45 1008.3
20260504230100 25 209 3.2 0.0 0.00 0.00 0.00 44 1008.3
20260504224600 25 187 4.8 0.0 0.00 0.00 0.00 44 1008.5
20260504223055 25 215 3.2 0.0 0.00 0.00 0.00 43 1008.5
20260504221547 25 134 1.6 0.0 0.00 0.00 0.00 47 1008.5
20260504220100 25 289 1.6 0.0 0.00 0.00 0.00 46 1008.7
20260504214549 25 5 1.6 0.0 0.00 0.00 0.00 46 1008.8
20260504213040 25 188 3.2 0.0 0.00 0.00 0.00 47 1009.0
20260504211529 25 330 0.0 0.0 0.00 0.00 0.00 46 1009.1
20260504210025 25 187 3.2 0.0 0.00 0.00 0.00 48 1009.2
20260504204521 25 184 3.2 0.0 0.00 0.00 0.00 48 1009.2
20260504203017 25 173 1.6 0.0 0.00 0.00 0.00 49 1009.2
20260504201512 24 350 1.6 0.0 0.00 0.00 0.00 47 1009.2
20260504200016 24 184 1.6 0.0 0.00 0.00 0.00 49 1009.3
20260504194504 23 197 1.6 0.0 0.00 0.00 0.00 48 1009.4
20260504193101 23 196 1.6 0.0 0.00 0.00 0.00 50 1009.5
20260504191558 23 200 3.2 0.0 0.00 0.00 0.00 53 1009.8
20260504184602 22 186 4.8 0.0 0.00 0.00 0.00 55 1009.9
20260504183049 22 215 1.6 0.0 0.00 0.00 0.00 55 1009.7
20260504181546 21 184 4.8 0.0 0.00 0.00 0.00 57 1009.9
20260504180034 21 155 3.2 0.0 0.00 0.00 0.00 58 1010.0
20260504174530 20 186 3.2 0.0 0.00 0.00 0.00 58 1010.0
20260504173026 20 202 3.2 0.0 0.00 0.00 0.00 58 1010.1
20260504171520 20 164 1.6 0.0 0.00 0.00 0.00 60 1009.9